Time,TemperatureF,DewpointF,PressureIn,WindDirection,WindDirectionDegrees,WindSpeedMPH,WindSpeedGustMPH,Humidity,HourlyPrecipIn,Conditions,Clouds,dailyrainin,SoftwareType,DateUTC
2013-04-10 00:00:00,56.4,42.7,30.10,North,32767,0.0,0.0,60,0.00,,,0.00,Wunderground v.1.13,2013-04-10 07:00:00,
2013-04-10 00:06:00,56.4,43.1,30.10,North,32767,0.0,0.0,61,0.00,,,0.00,Wunderground v.1.13,2013-04-10 07:06:00,
2013-04-10 00:15:00,56.1,43.3,30.10,North,32767,0.0,0.0,62,0.00,,,0.00,Wunderground v.1.13,2013-04-10 07:15:00,
2013-04-10 00:20:00,55.9,43.1,30.10,North,32767,0.0,0.0,62,0.00,,,0.00,Wunderground v.1.13,2013-04-10 07:20:00,
2013-04-10 00:25:00,55.7,43.3,30.10,North,32767,0.0,0.0,63,0.00,,,0.00,Wunderground v.1.13,2013-04-10 07:25:00,
2013-04-10 00:30:00,55.5,42.7,30.10,North,360,0.0,0.0,62,0.00,,,0.00,Wunderground v.1.13,2013-04-10 07:30:00,
2013-04-10 00:35:00,55.4,43.0,30.10,North,32767,0.0,0.0,63,0.00,,,0.00,Wunderground v.1.13,2013-04-10 07:35:00,
2013-04-10 00:40:00,55.4,43.0,30.10,North,32767,0.0,0.0,63,0.00,,,0.00,Wunderground v.1.13,2013-04-10 07:40:00,
2013-04-10 00:45:00,55.5,43.1,30.10,North,32767,0.0,0.0,63,0.00,,,0.00,Wunderground v.1.13,2013-04-10 07:45:00,
2013-04-10 00:50:00,55.5,43.1,30.10,North,32767,0.0,0.0,63,0.00,,,0.00,Wunderground v.1.13,2013-04-10 07:50:00,
2013-04-10 00:55:00,55.4,43.4,30.10,North,32767,0.0,0.0,64,0.00,,,0.00,Wunderground v.1.13,2013-04-10 07:55:00,
2013-04-10 01:00:00,55.1,43.1,30.11,North,32767,0.0,0.0,64,0.00,,,0.00,Wunderground v.1.13,2013-04-10 08:00:00,
2013-04-10 01:06:00,54.8,42.9,30.11,North,32767,0.0,0.0,64,0.00,,,0.00,Wunderground v.1.13,2013-04-10 08:06:00,
2013-04-10 01:15:00,54.9,42.1,30.11,North,32767,0.0,0.0,62,0.00,,,0.00,Wunderground v.1.13,2013-04-10 08:15:00,
2013-04-10 01:25:00,56.4,42.7,30.11,North,32767,0.0,0.0,60,0.00,,,0.00,Wunderground v.1.13,2013-04-10 08:25:00,
2013-04-10 01:30:00,57.0,42.8,30.11,North,360,0.0,0.0,59,0.00,,,0.00,Wunderground v.1.13,2013-04-10 08:30:00,
2013-04-10 01:35:00,57.3,43.1,30.11,North,32767,0.0,0.0,59,0.00,,,0.00,Wunderground v.1.13,2013-04-10 08:35:00,
2013-04-10 01:40:00,57.4,43.2,30.11,North,32767,0.0,0.0,59,0.00,,,0.00,Wunderground v.1.13,2013-04-10 08:40:00,
2013-04-10 01:45:00,57.3,43.1,30.11,North,360,0.0,0.0,59,0.00,,,0.00,Wunderground v.1.13,2013-04-10 08:45:00,
2013-04-10 01:50:00,57.1,42.9,30.11,North,32767,0.0,0.0,59,0.00,,,0.00,Wunderground v.1.13,2013-04-10 08:50:00,
2013-04-10 02:00:00,56.8,43.1,30.11,North,32767,0.0,0.0,60,0.00,,,0.00,Wunderground v.1.13,2013-04-10 09:00:00,
2013-04-10 02:06:00,56.7,43.0,30.11,North,32767,0.0,0.0,60,0.00,,,0.00,Wunderground v.1.13,2013-04-10 09:06:00,
2013-04-10 02:15:00,56.8,43.1,30.10,North,360,0.0,0.0,60,0.00,,,0.00,Wunderground v.1.13,2013-04-10 09:15:00,
2013-04-10 02:25:00,57.0,43.2,30.10,North,32767,0.0,0.0,60,0.00,,,0.00,Wunderground v.1.13,2013-04-10 09:25:00,
2013-04-10 02:30:00,57.1,42.9,30.10,North,32767,0.0,0.0,59,0.00,,,0.00,Wunderground v.1.13,2013-04-10 09:30:00,
2013-04-10 02:40:00,57.2,43.0,30.10,North,360,0.0,0.0,59,0.00,,,0.00,Wunderground v.1.13,2013-04-10 09:40:00,
2013-04-10 02:45:00,57.1,43.3,30.10,North,360,0.0,0.0,60,0.00,,,0.00,Wunderground v.1.13,2013-04-10 09:45:00,
2013-04-10 02:50:00,57.1,43.3,30.10,North,32767,0.0,0.0,60,0.00,,,0.00,Wunderground v.1.13,2013-04-10 09:50:00,
2013-04-10 02:55:00,57.2,43.4,30.10,North,360,0.0,0.0,60,0.00,,,0.00,Wunderground v.1.13,2013-04-10 09:55:00,
2013-04-10 03:00:00,57.2,43.0,30.10,North,360,0.0,0.0,59,0.00,,,0.00,Wunderground v.1.13,2013-04-10 10:00:00,
2013-04-10 03:06:00,57.2,43.4,30.10,North,32767,0.0,0.0,60,0.00,,,0.00,Wunderground v.1.13,2013-04-10 10:06:00,
2013-04-10 03:15:00,57.2,43.4,30.10,North,32767,0.0,0.0,60,0.00,,,0.00,Wunderground v.1.13,2013-04-10 10:15:00,
2013-04-10 03:20:00,57.3,43.5,30.10,North,360,0.0,0.0,60,0.00,,,0.00,Wunderground v.1.13,2013-04-10 10:20:00,
2013-04-10 03:30:00,57.5,43.3,30.10,North,360,0.0,0.0,59,0.00,,,0.00,Wunderground v.1.13,2013-04-10 10:30:00,
2013-04-10 03:35:00,57.6,43.4,30.10,North,360,0.0,0.0,59,0.00,,,0.00,Wunderground v.1.13,2013-04-10 10:35:00,
2013-04-10 03:40:00,57.7,43.5,30.10,North,32767,0.0,0.0,59,0.00,,,0.00,Wunderground v.1.13,2013-04-10 10:40:00,
2013-04-10 03:50:00,57.7,43.5,30.11,North,32767,0.0,0.0,59,0.00,,,0.00,Wunderground v.1.13,2013-04-10 10:50:00,
2013-04-10 03:55:00,57.8,43.6,30.10,North,360,0.0,0.0,59,0.00,,,0.00,Wunderground v.1.13,2013-04-10 10:55:00,
2013-04-10 04:00:00,57.8,43.6,30.10,North,32767,0.0,0.0,59,0.00,,,0.00,Wunderground v.1.13,2013-04-10 11:00:00,
2013-04-10 04:06:00,57.7,43.9,30.10,North,360,0.0,0.0,60,0.00,,,0.00,Wunderground v.1.13,2013-04-10 11:06:00,
2013-04-10 04:15:00,57.5,43.7,30.11,North,32767,0.0,0.0,60,0.00,,,0.00,Wunderground v.1.13,2013-04-10 11:15:00,
2013-04-10 04:20:00,57.5,43.7,30.11,North,32767,0.0,0.0,60,0.00,,,0.00,Wunderground v.1.13,2013-04-10 11:20:00,
2013-04-10 04:25:00,57.5,43.7,30.11,North,360,0.0,0.0,60,0.00,,,0.00,Wunderground v.1.13,2013-04-10 11:25:00,
2013-04-10 04:30:00,57.5,44.1,30.11,North,360,0.0,0.0,61,0.00,,,0.00,Wunderground v.1.13,2013-04-10 11:30:00,
2013-04-10 04:35:00,57.6,43.8,30.11,North,32767,0.0,0.0,60,0.00,,,0.00,Wunderground v.1.13,2013-04-10 11:35:00,
2013-04-10 04:40:00,57.6,44.2,30.11,North,360,0.0,0.0,61,0.00,,,0.00,Wunderground v.1.13,2013-04-10 11:40:00,
2013-04-10 04:50:00,57.6,44.2,30.11,North,32767,0.0,0.0,61,0.00,,,0.00,Wunderground v.1.13,2013-04-10 11:50:00,
2013-04-10 04:55:00,57.5,44.1,30.11,North,32767,0.0,0.0,61,0.00,,,0.00,Wunderground v.1.13,2013-04-10 11:55:00,
2013-04-10 05:06:00,57.3,44.0,30.11,North,32767,0.0,0.0,61,0.00,,,0.00,Wunderground v.1.13,2013-04-10 12:06:00,
2013-04-10 05:15:00,57.0,44.1,30.11,North,360,0.0,0.0,62,0.00,,,0.00,Wunderground v.1.13,2013-04-10 12:15:00,
2013-04-10 05:20:00,56.8,43.9,30.11,North,32767,0.0,0.0,62,0.00,,,0.00,Wunderground v.1.13,2013-04-10 12:20:00,
2013-04-10 05:25:00,56.7,44.2,30.11,North,360,0.0,0.0,63,0.00,,,0.00,Wunderground v.1.13,2013-04-10 12:25:00,
2013-04-10 05:30:00,56.4,44.0,30.11,North,32767,0.0,0.0,63,0.00,,,0.00,Wunderground v.1.13,2013-04-10 12:30:00,
2013-04-10 05:40:00,56.1,44.1,30.11,North,360,0.0,0.0,64,0.00,,,0.00,Wunderground v.1.13,2013-04-10 12:40:00,
2013-04-10 05:45:00,55.8,43.8,30.12,North,32767,0.0,0.0,64,0.00,,,0.00,Wunderground v.1.13,2013-04-10 12:45:00,
2013-04-10 05:50:00,55.5,43.9,30.12,North,360,0.0,0.0,65,0.00,,,0.00,Wunderground v.1.13,2013-04-10 12:50:00,
2013-04-10 05:55:00,55.1,43.9,30.12,North,32767,0.0,0.0,66,0.00,,,0.00,Wunderground v.1.13,2013-04-10 12:55:00,
2013-04-10 06:00:00,54.7,44.0,30.12,North,32767,0.0,0.0,67,0.00,,,0.00,Wunderground v.1.13,2013-04-10 13:00:00,
2013-04-10 06:06:00,54.3,44.0,30.12,North,360,0.0,0.0,68,0.00,,,0.00,Wunderground v.1.13,2013-04-10 13:06:00,
2013-04-10 06:15:00,53.7,43.8,30.12,North,360,0.0,0.0,69,0.00,,,0.00,Wunderground v.1.13,2013-04-10 13:15:00,
2013-04-10 06:20:00,53.6,43.7,30.12,North,32767,0.0,0.0,69,0.00,,,0.00,Wunderground v.1.13,2013-04-10 13:20:00,
2013-04-10 06:25:00,53.8,43.9,30.12,North,32767,0.0,0.0,69,0.00,,,0.00,Wunderground v.1.13,2013-04-10 13:25:00,
2013-04-10 06:30:00,54.2,43.9,30.13,North,32767,0.0,0.0,68,0.00,,,0.00,Wunderground v.1.13,2013-04-10 13:30:00,
2013-04-10 06:35:00,54.6,44.2,30.13,North,360,0.0,0.0,68,0.00,,,0.00,Wunderground v.1.13,2013-04-10 13:35:00,
2013-04-10 06:40:00,54.8,44.0,30.13,North,32767,0.0,0.0,67,0.00,,,0.00,Wunderground v.1.13,2013-04-10 13:40:00,
2013-04-10 06:50:00,55.3,44.1,30.14,North,360,0.0,0.0,66,0.00,,,0.00,Wunderground v.1.13,2013-04-10 13:50:00,
2013-04-10 06:55:00,55.3,44.5,30.14,North,32767,0.0,0.0,67,0.00,,,0.00,Wunderground v.1.13,2013-04-10 13:55:00,
2013-04-10 07:00:00,55.4,44.2,30.14,North,360,0.0,0.0,66,0.00,,,0.00,Wunderground v.1.13,2013-04-10 14:00:00,
2013-04-10 07:06:00,55.5,44.3,30.14,North,32767,0.0,0.0,66,0.00,,,0.00,Wunderground v.1.13,2013-04-10 14:06:00,
2013-04-10 07:15:00,55.5,44.7,30.14,North,32767,0.0,0.0,67,0.00,,,0.00,Wunderground v.1.13,2013-04-10 14:15:00,
2013-04-10 07:20:00,55.5,44.7,30.15,North,360,0.0,0.0,67,0.00,,,0.00,Wunderground v.1.13,2013-04-10 14:20:00,
2013-04-10 07:30:00,55.8,45.0,30.15,North,32767,0.0,0.0,67,0.00,,,0.00,Wunderground v.1.13,2013-04-10 14:30:00,
2013-04-10 07:35:00,56.4,45.2,30.15,North,360,0.0,0.0,66,0.00,,,0.00,Wunderground v.1.13,2013-04-10 14:35:00,
2013-04-10 07:40:00,56.7,45.5,30.15,North,32767,0.0,0.0,66,0.00,,,0.00,Wunderground v.1.13,2013-04-10 14:40:00,
2013-04-10 07:45:00,56.8,45.6,30.15,North,360,0.0,0.0,66,0.00,,,0.00,Wunderground v.1.13,2013-04-10 14:45:00,
2013-04-10 07:50:00,57.1,45.8,30.15,North,32767,0.0,0.0,66,0.00,,,0.00,Wunderground v.1.13,2013-04-10 14:50:00,
2013-04-10 08:00:00,57.3,46.0,30.15,North,360,0.0,0.0,66,0.00,,,0.00,Wunderground v.1.13,2013-04-10 15:00:00,
2013-04-10 08:06:00,57.6,46.3,30.16,North,360,0.0,0.0,66,0.00,,,0.00,Wunderground v.1.13,2013-04-10 15:06:00,
2013-04-10 08:15:00,58.8,46.6,30.16,North,32767,0.0,0.0,64,0.00,,,0.00,Wunderground v.1.13,2013-04-10 15:15:00,
2013-04-10 08:20:00,59.7,46.7,30.16,North,32767,0.0,0.0,62,0.00,,,0.00,Wunderground v.1.13,2013-04-10 15:20:00,
2013-04-10 08:25:00,60.6,46.6,30.16,North,32767,0.0,0.0,60,0.00,,,0.00,Wunderground v.1.13,2013-04-10 15:25:00,
2013-04-10 08:30:00,61.1,46.7,30.16,North,360,0.0,0.0,59,0.00,,,0.00,Wunderground v.1.13,2013-04-10 15:30:00,
2013-04-10 08:40:00,62.0,47.0,30.16,North,32767,0.0,0.0,58,0.00,,,0.00,Wunderground v.1.13,2013-04-10 15:40:00,
2013-04-10 08:45:00,62.4,47.0,30.16,North,32767,0.0,0.0,57,0.00,,,0.00,Wunderground v.1.13,2013-04-10 15:45:00,
2013-04-10 08:50:00,62.8,47.3,30.16,North,32767,0.0,0.0,57,0.00,,,0.00,Wunderground v.1.13,2013-04-10 15:50:00,
2013-04-10 09:00:00,63.3,47.3,30.17,North,32767,0.0,0.0,56,0.00,,,0.00,Wunderground v.1.13,2013-04-10 16:00:00,
2013-04-10 09:06:00,63.9,47.9,30.16,North,360,0.0,0.0,56,0.00,,,0.00,Wunderground v.1.13,2013-04-10 16:06:00,
2013-04-10 09:15:00,64.6,48.1,30.16,North,360,0.0,0.0,55,0.00,,,0.00,Wunderground v.1.13,2013-04-10 16:15:00,
2013-04-10 09:20:00,65.2,48.1,30.16,North,32767,0.0,0.0,54,0.00,,,0.00,Wunderground v.1.13,2013-04-10 16:20:00,
2013-04-10 09:25:00,65.7,49.1,30.16,North,32767,0.0,0.0,55,0.00,,,0.00,Wunderground v.1.13,2013-04-10 16:25:00,
2013-04-10 09:30:00,66.2,48.6,30.16,North,32767,0.0,0.0,53,0.00,,,0.00,Wunderground v.1.13,2013-04-10 16:30:00,
2013-04-10 09:35:00,66.7,49.0,30.16,North,32767,0.0,0.0,53,0.00,,,0.00,Wunderground v.1.13,2013-04-10 16:35:00,
2013-04-10 09:40:00,67.1,48.9,30.17,North,360,0.0,0.0,52,0.00,,,0.00,Wunderground v.1.13,2013-04-10 16:40:00,
2013-04-10 09:50:00,67.8,49.5,30.17,North,32767,0.0,0.0,52,0.00,,,0.00,Wunderground v.1.13,2013-04-10 16:50:00,
2013-04-10 09:55:00,68.1,49.8,30.16,North,360,0.0,0.0,52,0.00,,,0.00,Wunderground v.1.13,2013-04-10 16:55:00,
2013-04-10 10:00:00,68.6,50.3,30.16,North,32767,0.0,0.0,52,0.00,,,0.00,Wunderground v.1.13,2013-04-10 17:00:00,
2013-04-10 10:06:00,69.2,50.3,30.16,North,32767,0.0,0.0,51,0.00,,,0.00,Wunderground v.1.13,2013-04-10 17:06:00,
2013-04-10 10:15:00,70.4,51.4,30.16,North,360,0.0,0.0,51,0.00,,,0.00,Wunderground v.1.13,2013-04-10 17:15:00,
2013-04-10 10:25:00,72.6,51.8,30.17,North,32767,0.0,0.0,48,0.00,,,0.00,Wunderground v.1.13,2013-04-10 17:25:00,
2013-04-10 10:30:00,73.9,51.8,30.16,North,32767,0.0,0.0,46,0.00,,,0.00,Wunderground v.1.13,2013-04-10 17:30:00,
2013-04-10 10:35:00,75.1,52.3,30.16,North,32767,0.0,0.0,45,0.00,,,0.00,Wunderground v.1.13,2013-04-10 17:35:00,
2013-04-10 10:40:00,76.2,52.7,30.16,North,32767,0.0,0.0,44,0.00,,,0.00,Wunderground v.1.13,2013-04-10 17:40:00,
2013-04-10 10:45:00,77.2,53.0,30.16,North,360,0.0,0.0,43,0.00,,,0.00,Wunderground v.1.13,2013-04-10 17:45:00,
2013-04-10 10:50:00,77.8,52.9,30.16,North,32767,0.0,0.0,42,0.00,,,0.00,Wunderground v.1.13,2013-04-10 17:50:00,
2013-04-10 11:00:00,78.1,52.5,30.16,North,360,0.0,0.0,41,0.00,,,0.00,Wunderground v.1.13,2013-04-10 18:00:00,
2013-04-10 11:06:00,78.5,52.8,30.16,North,360,0.0,0.0,41,0.00,,,0.00,Wunderground v.1.13,2013-04-10 18:06:00,
2013-04-10 11:15:00,78.1,53.1,30.16,North,360,0.0,0.0,42,0.00,,,0.00,Wunderground v.1.13,2013-04-10 18:15:00,
2013-04-10 11:20:00,78.3,53.3,30.16,North,32767,0.0,0.0,42,0.00,,,0.00,Wunderground v.1.13,2013-04-10 18:20:00,
2013-04-10 11:25:00,78.7,53.0,30.15,North,360,0.0,0.0,41,0.00,,,0.00,Wunderground v.1.13,2013-04-10 18:25:00,
2013-04-10 11:35:00,79.1,52.7,30.15,North,32767,0.0,0.0,40,0.00,,,0.00,Wunderground v.1.13,2013-04-10 18:35:00,
2013-04-10 11:40:00,79.4,53.6,30.15,North,32767,0.0,0.0,41,0.00,,,0.00,Wunderground v.1.13,2013-04-10 18:40:00,
2013-04-10 11:45:00,79.6,53.1,30.15,North,32767,0.0,0.0,40,0.00,,,0.00,Wunderground v.1.13,2013-04-10 18:45:00,
2013-04-10 11:50:00,79.8,53.3,30.15,North,32767,0.0,0.0,40,0.00,,,0.00,Wunderground v.1.13,2013-04-10 18:50:00,
2013-04-10 11:55:00,80.1,53.6,30.14,North,360,0.0,0.0,40,0.00,,,0.00,Wunderground v.1.13,2013-04-10 18:55:00,
2013-04-10 12:00:00,80.2,53.7,30.14,North,360,0.0,0.0,40,0.00,,,0.00,Wunderground v.1.13,2013-04-10 19:00:00,
2013-04-10 12:06:00,80.6,53.4,30.14,North,32767,0.0,0.0,39,0.00,,,0.00,Wunderground v.1.13,2013-04-10 19:06:00,
2013-04-10 12:15:00,81.0,51.5,30.14,North,32767,0.0,0.0,36,0.00,,,0.00,Wunderground v.1.13,2013-04-10 19:15:00,
2013-04-10 12:20:00,81.1,51.6,30.14,North,360,0.0,0.0,36,0.00,,,0.00,Wunderground v.1.13,2013-04-10 19:20:00,
2013-04-10 12:25:00,81.6,52.8,30.13,North,32767,0.0,0.0,37,0.00,,,0.00,Wunderground v.1.13,2013-04-10 19:25:00,
2013-04-10 12:30:00,82.1,54.0,30.13,North,360,0.0,0.0,38,0.00,,,0.00,Wunderground v.1.13,2013-04-10 19:30:00,
2013-04-10 12:35:00,82.8,53.1,30.13,North,360,0.0,0.0,36,0.00,,,0.00,Wunderground v.1.13,2013-04-10 19:35:00,
2013-04-10 12:45:00,83.9,54.1,30.12,North,32767,0.0,0.0,36,0.00,,,0.00,Wunderground v.1.13,2013-04-10 19:45:00,
2013-04-10 12:50:00,84.8,54.9,30.12,North,32767,0.0,0.0,36,0.00,,,0.00,Wunderground v.1.13,2013-04-10 19:50:00,
2013-04-10 13:00:00,84.9,53.4,30.12,North,360,0.0,0.0,34,0.00,,,0.00,Wunderground v.1.13,2013-04-10 20:00:00,
2013-04-10 13:06:00,85.1,53.6,30.11,North,32767,0.0,0.0,34,0.00,,,0.00,Wunderground v.1.13,2013-04-10 20:06:00,
2013-04-10 13:15:00,86.4,55.5,30.11,North,32767,0.0,0.0,35,0.00,,,0.00,Wunderground v.1.13,2013-04-10 20:15:00,
2013-04-10 13:25:00,86.3,55.4,30.10,North,32767,0.0,0.0,35,0.00,,,0.00,Wunderground v.1.13,2013-04-10 20:25:00,
2013-04-10 13:30:00,85.8,55.8,30.10,North,32767,0.0,0.0,36,0.00,,,0.00,Wunderground v.1.13,2013-04-10 20:30:00,
2013-04-10 13:35:00,86.2,56.1,30.10,North,360,0.0,0.0,36,0.00,,,0.00,Wunderground v.1.13,2013-04-10 20:35:00,
2013-04-10 13:40:00,86.4,55.5,30.09,North,32767,0.0,0.0,35,0.00,,,0.00,Wunderground v.1.13,2013-04-10 20:40:00,
2013-04-10 13:45:00,86.1,55.2,30.09,North,360,0.0,0.0,35,0.00,,,0.00,Wunderground v.1.13,2013-04-10 20:45:00,
2013-04-10 13:50:00,86.6,55.7,30.09,North,360,0.0,0.0,35,0.00,,,0.00,Wunderground v.1.13,2013-04-10 20:50:00,
2013-04-10 14:00:00,87.1,54.5,30.09,North,32767,0.0,0.0,33,0.00,,,0.00,Wunderground v.1.13,2013-04-10 21:00:00,
2013-04-10 14:06:00,86.8,58.1,30.09,North,32767,0.0,0.0,38,0.00,,,0.00,Wunderground v.1.13,2013-04-10 21:06:00,
2013-04-10 14:15:00,85.6,57.8,30.09,North,32767,0.0,0.0,39,0.00,,,0.00,Wunderground v.1.13,2013-04-10 21:15:00,
2013-04-10 14:20:00,85.2,57.4,30.09,North,32767,0.0,0.0,39,0.00,,,0.00,Wunderground v.1.13,2013-04-10 21:20:00,
2013-04-10 14:25:00,84.7,57.7,30.08,North,32767,0.0,0.0,40,0.00,,,0.00,Wunderground v.1.13,2013-04-10 21:25:00,
2013-04-10 14:35:00,84.7,57.7,30.08,North,32767,0.0,0.0,40,0.00,,,0.00,Wunderground v.1.13,2013-04-10 21:35:00,
2013-04-10 14:40:00,84.5,57.5,30.08,North,360,0.0,0.0,40,0.00,,,0.00,Wunderground v.1.13,2013-04-10 21:40:00,
2013-04-10 14:45:00,83.9,57.7,30.08,North,32767,0.0,0.0,41,0.00,,,0.00,Wunderground v.1.13,2013-04-10 21:45:00,
2013-04-10 14:50:00,83.9,58.3,30.08,North,360,0.0,0.0,42,0.00,,,0.00,Wunderground v.1.13,2013-04-10 21:50:00,
2013-04-10 14:55:00,84.2,58.6,30.07,North,360,0.0,0.0,42,0.00,,,0.00,Wunderground v.1.13,2013-04-10 21:55:00,
2013-04-10 15:00:00,84.4,58.1,30.07,North,32767,0.0,0.0,41,0.00,,,0.00,Wunderground v.1.13,2013-04-10 22:00:00,
2013-04-10 15:06:00,84.8,57.8,30.07,North,360,0.0,0.0,40,0.00,,,0.00,Wunderground v.1.13,2013-04-10 22:06:00,
2013-04-10 15:15:00,84.7,59.7,30.07,North,32767,0.0,0.0,43,0.00,,,0.00,Wunderground v.1.13,2013-04-10 22:15:00,
2013-04-10 15:20:00,85.3,58.9,30.07,North,360,0.0,0.0,41,0.00,,,0.00,Wunderground v.1.13,2013-04-10 22:20:00,
2013-04-10 15:25:00,85.6,59.2,30.06,North,32767,0.0,0.0,41,0.00,,,0.00,Wunderground v.1.13,2013-04-10 22:25:00,
2013-04-10 15:35:00,86.2,59.0,30.06,North,32767,0.0,0.0,40,0.00,,,0.00,Wunderground v.1.13,2013-04-10 22:35:00,
2013-04-10 15:45:00,87.0,55.2,30.05,North,32767,0.0,0.0,34,0.00,,,0.00,Wunderground v.1.13,2013-04-10 22:45:00,
2013-04-10 15:50:00,87.6,57.3,30.05,North,360,0.0,0.0,36,0.00,,,0.00,Wunderground v.1.13,2013-04-10 22:50:00,
2013-04-10 15:55:00,87.8,53.4,30.05,North,360,0.0,0.0,31,0.00,,,0.00,Wunderground v.1.13,2013-04-10 22:55:00,
2013-04-10 16:00:00,87.6,53.2,30.05,North,32767,0.0,0.0,31,0.00,,,0.00,Wunderground v.1.13,2013-04-10 23:00:00,
2013-04-10 16:06:00,87.5,53.1,30.04,North,360,0.0,0.0,31,0.00,,,0.00,Wunderground v.1.13,2013-04-10 23:06:00,
2013-04-10 16:15:00,86.6,53.2,30.04,North,32767,0.0,0.0,32,0.00,,,0.00,Wunderground v.1.13,2013-04-10 23:15:00,
2013-04-10 16:25:00,85.2,52.0,30.03,North,32767,0.0,0.0,32,0.00,,,0.00,Wunderground v.1.13,2013-04-10 23:25:00,
2013-04-10 16:30:00,84.5,51.4,30.03,North,360,0.0,0.0,32,0.00,,,0.00,Wunderground v.1.13,2013-04-10 23:30:00,
2013-04-10 16:35:00,83.9,50.9,30.03,North,32767,0.0,0.0,32,0.00,,,0.00,Wunderground v.1.13,2013-04-10 23:35:00,
2013-04-10 16:40:00,83.6,50.6,30.03,North,32767,0.0,0.0,32,0.00,,,0.00,Wunderground v.1.13,2013-04-10 23:40:00,
2013-04-10 16:45:00,83.5,50.5,30.03,North,32767,0.0,0.0,32,0.00,,,0.00,Wunderground v.1.13,2013-04-10 23:45:00,
2013-04-10 16:50:00,83.4,49.6,30.03,North,32767,0.0,0.0,31,0.00,,,0.00,Wunderground v.1.13,2013-04-10 23:50:00,
2013-04-10 17:00:00,83.0,50.1,30.03,North,360,0.0,0.0,32,0.00,,,0.00,Wunderground v.1.13,2013-04-11 00:00:00,
2013-04-10 17:06:00,82.9,49.2,30.02,North,360,0.0,0.0,31,0.00,,,0.00,Wunderground v.1.13,2013-04-11 00:06:00,
2013-04-10 17:15:00,82.7,49.8,30.02,North,32767,0.0,0.0,32,0.00,,,0.00,Wunderground v.1.13,2013-04-11 00:15:00,
2013-04-10 17:20:00,82.7,50.7,30.02,North,32767,0.0,0.0,33,0.00,,,0.00,Wunderground v.1.13,2013-04-11 00:20:00,
2013-04-10 17:25:00,83.0,50.1,30.02,North,32767,0.0,0.0,32,0.00,,,0.00,Wunderground v.1.13,2013-04-11 00:25:00,
2013-04-10 17:35:00,82.9,49.2,30.02,North,32767,0.0,0.0,31,0.00,,,0.00,Wunderground v.1.13,2013-04-11 00:35:00,
2013-04-10 17:40:00,82.5,48.8,30.02,North,360,0.0,0.0,31,0.00,,,0.00,Wunderground v.1.13,2013-04-11 00:40:00,
2013-04-10 17:45:00,82.2,49.4,30.02,North,32767,0.0,0.0,32,0.00,,,0.00,Wunderground v.1.13,2013-04-11 00:45:00,
2013-04-10 17:50:00,81.8,49.1,30.02,North,32767,0.0,0.0,32,0.00,,,0.00,Wunderground v.1.13,2013-04-11 00:50:00,
2013-04-10 17:55:00,81.4,49.5,30.02,North,32767,0.0,0.0,33,0.00,,,0.00,Wunderground v.1.13,2013-04-11 00:55:00,
2013-04-10 18:06:00,80.7,49.7,30.02,North,32767,0.0,0.0,34,0.00,,,0.00,Wunderground v.1.13,2013-04-11 01:06:00,
2013-04-10 18:15:00,79.4,49.4,30.02,North,360,0.0,0.0,35,0.00,,,0.00,Wunderground v.1.13,2013-04-11 01:15:00,
2013-04-10 18:20:00,78.7,49.5,30.02,North,32767,0.0,0.0,36,0.00,,,0.00,Wunderground v.1.13,2013-04-11 01:20:00,
2013-04-10 18:25:00,78.1,50.4,30.02,North,360,0.0,0.0,38,0.00,,,0.00,Wunderground v.1.13,2013-04-11 01:25:00,
2013-04-10 18:30:00,77.4,49.8,30.02,North,32767,0.0,0.0,38,0.00,,,0.00,Wunderground v.1.13,2013-04-11 01:30:00,
2013-04-10 18:40:00,76.4,50.3,30.02,North,32767,0.0,0.0,40,0.00,,,0.00,Wunderground v.1.13,2013-04-11 01:40:00,
2013-04-10 18:45:00,76.0,50.6,30.02,North,360,0.0,0.0,41,0.00,,,0.00,Wunderground v.1.13,2013-04-11 01:45:00,
2013-04-10 18:50:00,75.5,50.8,30.02,North,32767,0.0,0.0,42,0.00,,,0.00,Wunderground v.1.13,2013-04-11 01:50:00,
2013-04-10 18:55:00,74.9,50.9,30.02,North,360,0.0,0.0,43,0.00,,,0.00,Wunderground v.1.13,2013-04-11 01:55:00,
2013-04-10 19:06:00,73.7,51.0,30.02,North,360,0.0,0.0,45,0.00,,,0.00,Wunderground v.1.13,2013-04-11 02:06:00,
2013-04-10 19:15:00,72.6,50.6,30.03,North,32767,0.0,0.0,46,0.00,,,0.00,Wunderground v.1.13,2013-04-11 02:15:00,
2013-04-10 19:20:00,72.1,50.8,30.03,North,360,0.0,0.0,47,0.00,,,0.00,Wunderground v.1.13,2013-04-11 02:20:00,
2013-04-10 19:25:00,71.7,51.0,30.03,North,32767,0.0,0.0,48,0.00,,,0.00,Wunderground v.1.13,2013-04-11 02:25:00,
2013-04-10 19:35:00,71.0,50.3,30.03,North,32767,0.0,0.0,48,0.00,,,0.00,Wunderground v.1.13,2013-04-11 02:35:00,
2013-04-10 19:40:00,70.6,50.5,30.03,North,360,0.0,0.0,49,0.00,,,0.00,Wunderground v.1.13,2013-04-11 02:40:00,
2013-04-10 19:50:00,70.0,50.5,30.03,North,32767,0.0,0.0,50,0.00,,,0.00,Wunderground v.1.13,2013-04-11 02:50:00,
2013-04-10 19:55:00,69.7,50.8,30.03,North,360,0.0,0.0,51,0.00,,,0.00,Wunderground v.1.13,2013-04-11 02:55:00,
2013-04-10 20:00:00,69.3,50.4,30.03,North,32767,0.0,0.0,51,0.00,,,0.00,Wunderground v.1.13,2013-04-11 03:00:00,
2013-04-10 20:06:00,69.0,50.6,30.04,North,32767,0.0,0.0,52,0.00,,,0.00,Wunderground v.1.13,2013-04-11 03:06:00,
2013-04-10 20:15:00,68.5,50.7,30.03,North,360,0.0,0.0,53,0.00,,,0.00,Wunderground v.1.13,2013-04-11 03:15:00,
2013-04-10 20:25:00,68.1,50.8,30.03,North,360,0.0,0.0,54,0.00,,,0.00,Wunderground v.1.13,2013-04-11 03:25:00,
2013-04-10 20:30:00,67.9,50.6,30.03,North,32767,0.0,0.0,54,0.00,,,0.00,Wunderground v.1.13,2013-04-11 03:30:00,
2013-04-10 20:35:00,67.8,50.5,30.04,North,360,0.0,0.0,54,0.00,,,0.00,Wunderground v.1.13,2013-04-11 03:35:00,
2013-04-10 20:40:00,67.7,50.9,30.04,North,32767,0.0,0.0,55,0.00,,,0.00,Wunderground v.1.13,2013-04-11 03:40:00,
2013-04-10 20:45:00,67.6,50.9,30.04,North,32767,0.0,0.0,55,0.00,,,0.00,Wunderground v.1.13,2013-04-11 03:45:00,
2013-04-10 20:50:00,67.5,50.8,30.04,North,32767,0.0,0.0,55,0.00,,,0.00,Wunderground v.1.13,2013-04-11 03:50:00,
2013-04-10 21:00:00,67.2,51.0,30.04,North,32767,0.0,0.0,56,0.00,,,0.00,Wunderground v.1.13,2013-04-11 04:00:00,
2013-04-10 21:06:00,67.1,50.9,30.04,North,32767,0.0,0.0,56,0.00,,,0.00,Wunderground v.1.13,2013-04-11 04:06:00,
2013-04-10 21:15:00,66.9,50.2,30.04,North,360,0.0,0.0,55,0.00,,,0.00,Wunderground v.1.13,2013-04-11 04:15:00,
2013-04-10 21:20:00,66.8,50.1,30.05,North,32767,0.0,0.0,55,0.00,,,0.00,Wunderground v.1.13,2013-04-11 04:20:00,
2013-04-10 21:25:00,66.7,50.0,30.05,North,32767,0.0,0.0,55,0.00,,,0.00,Wunderground v.1.13,2013-04-11 04:25:00,
2013-04-10 21:35:00,66.5,49.8,30.05,North,32767,0.0,0.0,55,0.00,,,0.00,Wunderground v.1.13,2013-04-11 04:35:00,
2013-04-10 21:40:00,66.3,50.1,30.05,North,32767,0.0,0.0,56,0.00,,,0.00,Wunderground v.1.13,2013-04-11 04:40:00,
2013-04-10 21:45:00,66.0,49.8,30.06,North,360,0.0,0.0,56,0.00,,,0.00,Wunderground v.1.13,2013-04-11 04:45:00,
2013-04-10 21:50:00,65.8,49.7,30.06,North,32767,0.0,0.0,56,0.00,,,0.00,Wunderground v.1.13,2013-04-11 04:50:00,
2013-04-10 21:55:00,65.5,49.9,30.06,North,32767,0.0,0.0,57,0.00,,,0.00,Wunderground v.1.13,2013-04-11 04:55:00,
2013-04-10 22:06:00,64.9,49.8,30.06,North,360,0.0,0.0,58,0.00,,,0.00,Wunderground v.1.13,2013-04-11 05:06:00,
2013-04-10 22:15:00,64.5,49.8,30.06,North,32767,0.0,0.0,59,0.00,,,0.00,Wunderground v.1.13,2013-04-11 05:15:00,
2013-04-10 22:20:00,64.3,49.7,30.06,North,360,0.0,0.0,59,0.00,,,0.00,Wunderground v.1.13,2013-04-11 05:20:00,
2013-04-10 22:25:00,64.0,49.4,30.06,North,360,0.0,0.0,59,0.00,,,0.00,Wunderground v.1.13,2013-04-11 05:25:00,
2013-04-10 22:30:00,63.8,49.6,30.06,North,32767,0.0,0.0,60,0.00,,,0.00,Wunderground v.1.13,2013-04-11 05:30:00,
2013-04-10 22:40:00,63.4,49.3,30.07,North,360,0.0,0.0,60,0.00,,,0.00,Wunderground v.1.13,2013-04-11 05:40:00,
2013-04-10 22:45:00,63.3,49.2,30.06,North,32767,0.0,0.0,60,0.00,,,0.00,Wunderground v.1.13,2013-04-11 05:45:00,
2013-04-10 22:50:00,63.1,49.0,30.06,North,360,0.0,0.0,60,0.00,,,0.00,Wunderground v.1.13,2013-04-11 05:50:00,
2013-04-10 22:55:00,62.9,49.2,30.06,North,32767,0.0,0.0,61,0.00,,,0.00,Wunderground v.1.13,2013-04-11 05:55:00,
2013-04-10 23:00:00,62.7,49.1,30.06,North,360,0.0,0.0,61,0.00,,,0.00,Wunderground v.1.13,2013-04-11 06:00:00,
2013-04-10 23:06:00,62.6,49.0,30.05,North,360,0.0,0.0,61,0.00,,,0.00,Wunderground v.1.13,2013-04-11 06:06:00,
2013-04-10 23:15:00,62.3,48.7,30.05,North,360,0.0,0.0,61,0.00,,,0.00,Wunderground v.1.13,2013-04-11 06:15:00,
2013-04-10 23:25:00,61.9,48.7,30.05,North,32767,0.0,0.0,62,0.00,,,0.00,Wunderground v.1.13,2013-04-11 06:25:00,
2013-04-10 23:30:00,61.8,48.6,30.05,North,32767,0.0,0.0,62,0.00,,,0.00,Wunderground v.1.13,2013-04-11 06:30:00,
2013-04-10 23:35:00,61.6,48.4,30.04,North,32767,0.0,0.0,62,0.00,,,0.00,Wunderground v.1.13,2013-04-11 06:35:00,
2013-04-10 23:40:00,61.4,48.7,30.04,North,32767,0.0,0.0,63,0.00,,,0.00,Wunderground v.1.13,2013-04-11 06:40:00,
2013-04-10 23:45:00,61.3,48.6,30.04,North,32767,0.0,0.0,63,0.00,,,0.00,Wunderground v.1.13,2013-04-11 06:45:00,
2013-04-10 23:55:00,61.1,48.4,30.05,North,360,0.0,0.0,63,0.00,,,0.00,Wunderground v.1.13,2013-04-11 06:55:00,